Location: Te Maire Creek
(41.1333°S, 175.9167°E)
Time: 01:40:51
(UTC+00:00)

USA 305 - Pass Details

Date: 19 May 2024
Orbit: 491 x 494 km, 54.4° (Epoch: 11 March)

Event Time Altitude Azimuth Distance (km) Brightness Sun altitude
Exits shadow 17:37:30 34° 326° (NNW) 829 3.5 -19.5°
Maximum altitude 17:39:04 73° 43° (NE) 523 2.7 -19.2°
Drops below altitude 10° 17:43:01 10° 128° (SE) 1,716 5.9 -18.5°
Sets 17:45:13 0° 129° (SE) 2,590 6.9 -18.1°
